UAL1822 KEWR-KEYW

Flight info

Callsign UAL1822
Flight time N/A
Altitude 36000
Route ELVAE NECCK WHITE Q409 CRPLR Q85 ROYCO Q83 JEVED Q97 DEBRL/N0457F370 Q97 EBAYY FNTSY1
Aircraft A320/M-SDE3FGHIRWY/LB1

Departure

Time 2026-04-22 00:50
Airport Newark Liberty International Airport (KEWR)

Arrival

Time N/A
Airport Key West International Airport (KEYW)
Time Latitude Longitude Altitude Speed Heading
2026-04-21 23:55 40.69603 -74.17351 26 ft 0 kts 142°
2026-04-22 00:39 40.69607 -74.17355 22 ft 3 kts 142°
2026-04-22 00:40 40.69625 -74.17376 23 ft 4 kts 166°
2026-04-22 00:40 40.69644 -74.17381 24 ft 4 kts 115°
2026-04-22 00:40 40.69640 -74.17400 24 ft 4 kts 41°
2026-04-22 00:40 40.69628 -74.17413 24 ft 0 kts 41°
2026-04-22 00:45 40.69632 -74.17408 26 ft 2 kts 41°
2026-04-22 00:45 40.69650 -74.17388 23 ft 5 kts 41°
2026-04-22 00:45 40.69682 -74.17352 22 ft 7 kts 40°
2026-04-22 00:45 40.69714 -74.17298 22 ft 6 kts 69°
2026-04-22 00:46 40.69733 -74.17233 23 ft 8 kts 73°
2026-04-22 00:46 40.69710 -74.17179 22 ft 7 kts 142°
2026-04-22 00:46 40.69660 -74.17142 22 ft 10 kts 152°
2026-04-22 00:46 40.69603 -74.17087 22 ft 10 kts 114°
2026-04-22 00:47 40.69622 -74.16993 22 ft 12 kts 70°
2026-04-22 00:47 40.69653 -74.16876 22 ft 15 kts 69°
2026-04-22 00:47 40.69683 -74.16765 22 ft 11 kts 69°
2026-04-22 00:47 40.69750 -74.16699 21 ft 14 kts 25°
2026-04-22 00:48 40.69844 -74.16639 22 ft 16 kts 26°
2026-04-22 00:48 40.69951 -74.16572 21 ft 18 kts 25°
2026-04-22 00:48 40.70028 -74.16523 22 ft 8 kts 24°
2026-04-22 00:48 40.70066 -74.16484 21 ft 6 kts 70°
2026-04-22 00:49 40.70061 -74.16412 20 ft 10 kts 97°
2026-04-22 00:49 40.70020 -74.16372 20 ft 7 kts 202°
2026-04-22 00:49 40.69959 -74.16406 19 ft 15 kts 204°
2026-04-22 00:49 40.69646 -74.16596 22 ft 82 kts 205°
2026-04-22 00:50 40.68959 -74.17032 22 ft 134 kts 205°
2026-04-22 00:50 40.68016 -74.17652 190 ft 161 kts 204°
2026-04-22 00:50 40.66994 -74.18311 739 ft 165 kts 204°
2026-04-22 00:50 40.65985 -74.19078 1308 ft 170 kts 207°
2026-04-22 00:51 40.64948 -74.19886 1798 ft 180 kts 209°
2026-04-22 00:51 40.63792 -74.20777 2064 ft 205 kts 210°